Briseno, Mexico

8:21 PM CST on March 24, 2017 (GMT -0600)
Gen Leobardo C Ruiz International | | Change Station

Elev 7021 ft 22.90 °N, 102.68 °W | Updated 35 minutes ago

Clear
Clear
64 °F
Feels Like 64 °F
N
17
Wind Variable Wind from NNE

Today
High -- | Low -- °F
--% Chance of Precip.
Yesterday
High -- | Low -- °F
Precip. -- in
Pressure 30.23 in
Visibility 10.0 miles
Clouds Clear
Dew Point 10 °F
Humidity 12%
Rainfall 0.00 in
Snow Depth Not available.
6:51 AM 7:04 PM
Waning Crescent, 11% visible
METAR MMZC 250146Z 03015KT 10SM SKC 18/M12 A3023
Pressure 30.23 in
Visibility 10.0 miles
Clouds Clear
Dew Point 10 °F
Humidity 12%
Rainfall 0.00 in
Snow Depth Not available.
6:51 AM 7:04 PM
Waning Crescent, 11% visible
METAR MMZC 250146Z 03015KT 10SM SKC 18/M12 A3023

Get Severe Weather Alerts

Thanks for signing up!

Be on the lookout for a verification email in your inbox.

You'll start receiving the daily forecast at 8 AM.

×

10-Day Weather Forecast

No radar image for this location.
×

Almanac

Astronomy

Mar. 24, 2017 Rise Set
Actual Time
Civil Twilight
Nautical Twilight
Astronomical Twilight
Moon
Length of Visible Light
Length of Day
Tomorrow will be .
, % of the Moon is Illuminated

Today's Extremes

Country Highs Country Lows

Community

WunderPhotos

Upload Photos

1,962,540 photos uploaded!

WunderBlog® & News

Nearby

Air Quality

  Air Quality AQ Index Pollutant
Not available.

Snow Depth

Station Depth Elevation

Earthquake Activity

City Distance Mag. Time & Date
Minimum magnitude displayed is 2.5.

Earthquake Activity

City Distance Mag. Time & Date
Minimum magnitude displayed is 2.5.

Coastal Water Temperatures

Place Temperature

Stations

Nearby Weather Stations

Station Location Temp. Windchill Dew Point Humidity Wind Precip. Elev Updated Type